Regional Weather Roundup
Issued by NWS

Home | Current Version | Previous Version | Graphics & Text | Print | Product List | Glossary On
Versions: 1 2 3 4 5 6 7 8 9 10 11 12 13 14 15 16 17 18 19 20 21 22 23 24 25 26 27 28 29 30 31 32 33 34 35 36 37 38 39 40 41 42 43 44 45 46 47 48 49 50
000
ASUS43 KOAX 010110
RWRNE

WEATHER ROUNDUP FOR NEBRASKA
NATIONAL WEATHER SERVICE OMAHA NE
800 PM CDT FRI SEP 30 2016

NOTES: SATELLITE DATA IS BEING USED TO AUGMENT CLOUD COVER ABOVE
       12000 FEET.
       "FAIR" INDICATES FEW OR NO CLOUDS BELOW 12,000 FEET WITH NO
       SIGNIFICANT WEATHER AND/OR OBSTRUCTIONS TO VISIBILITY.

  * THESE STATIONS DO NOT REPORT WEATHER SUCH AS RAIN...SNOW OR FOG.

NEZ001>004-019>022-054>056-010200-
NEBRASKA PANHANDLE

CITY           SKY/WX    TMP DP  RH WIND       PRES   REMARKS
SCOTTSBLUFF    CLOUDY    60  48  64 E8        30.10F
ALLIANCE       CLOUDY    64  47  53 S12       30.09F
CHADRON        MOCLDY    69  48  47 SE12      30.04F
KIMBALL        PTCLDY    63  48  57 SE9       30.15F
SIDNEY         CLOUDY    63  47  55 SE8       30.15F
$$

NEZ057>060-069>072-079>082-010200-
SOUTHWEST NEBRASKA

CITY           SKY/WX    TMP DP  RH WIND       PRES   REMARKS
NORTH PLATTE   CLOUDY    59  47  64 E5        30.15S
IMPERIAL       CLOUDY    63  46  54 E7        30.14F
LEXINGTON      MOCLDY    62  47  57 SE5       30.15S
MCCOOK         CLOUDY    63  47  55 E7        30.15R
OGALLALA       CLOUDY    67  46  47 SE7       30.14F
$$

NEZ005>010-023>029-035>040-094-010200-
NORTH CENTRAL NEBRASKA

CITY           SKY/WX    TMP DP  RH WIND       PRES   REMARKS
VALENTINE      PTCLDY    62  45  53 SE8       30.11F
AINSWORTH      PTCLDY    61  47  59 SE8       30.13F
BROKEN BOW     PTCLDY    60  46  59 SE7       30.15S
O`NEILL        MOCLDY    61  44  52 SE5       30.16S
ORD            MOCLDY    57  44  62 CALM      30.15S
THEDFORD       MOCLDY    64  44  49 S8        30.14F
$$

NEZ041-046>049-061>064-073>077-083>087-010200-
SOUTH CENTRAL NEBRASKA

CITY           SKY/WX    TMP DP  RH WIND       PRES   REMARKS
GRAND ISLAND   MOCLDY    60  47  61 S3        30.16S
AURORA         PTCLDY    58  47  67 E6        30.15F
HASTINGS       MOCLDY    64  44  48 CALM      30.16S
HEBRON         MOCLDY    60  49  65 CALM      30.15S
HOLDREGE       MOCLDY    59  44  58 SE5       30.15F
KEARNEY *      PTCLDY    59  41  51 SE7       30.15S
YORK           MOCLDY    57  46  67 E6        30.15F
$$

NEZ011>018-030>034-042>045-010200-
NORTHEAST NEBRASKA

CITY           SKY/WX    TMP DP  RH WIND       PRES   REMARKS
NORFOLK        PTCLDY    60  43  53 CALM      30.15F
ALBION         CLOUDY    59  46  62 SE3       30.15F
BLAIR          CLEAR     64  50  59 NE6       30.14F
FREMONT        CLOUDY    59  51  73 CALM      30.15F
TEKAMAH        CLEAR     58  48  69 CALM      30.14F
WAYNE          PTCLDY    55  48  79 CALM      30.16F
$$

NEZ050>053-065>068-078-088>093-010200-
SOUTHEAST NEBRASKA

CITY           SKY/WX    TMP DP  RH WIND       PRES   REMARKS
LINCOLN        PTCLDY    59  50  72 N5        30.15F
OMAHA EPPLEY   PTCLDY    64  52  64 E7        30.14S
BEATRICE       CLOUDY    63  48  59 NE3       30.14F
FALLS CITY     CLOUDY    64  47  53 CALM      30.12F
NEBRASKA CITY  CLOUDY    63  41  45 NE5       30.14S
PLATTSMOUTH    CLOUDY    63  47  56 E6        30.15S
$$

NEZ044-045-051>053-067-010200-
OMAHA AREA

CITY           SKY/WX    TMP DP  RH WIND       PRES   REMARKS
OMAHA EPPLEY   PTCLDY    64  52  64 E7        30.14S
BLAIR          CLEAR     64  50  59 NE6       30.14F
FREMONT        CLOUDY    59  51  73 CALM      30.15F
MILLARD        CLOUDY    60  52  74 CALM      30.14S
OFFUTT AFB     PTCLDY    61  51  70 NE6       30.13S
PLATTSMOUTH    CLOUDY    63  47  56 E6        30.15S
WAHOO          FAIR      59  48  67 CALM      30.14F
$$



USA.gov is the U.S. government's official web portal to all federal, state and local government web resources and services.